Tracking 19817 objects as of 17-Aug-2019
HD Live streaming from Space Station
objects crossing your sky now

COSMOS 2251 DEB

Track COSMOS 2251 DEB now!
10-day predictions


NORAD ID: 35670
Int'l Code: 1993-036APM
Perigee: 651.1 km
Apogee: 743.3 km
Inclination: 73.9 °
Period: 98.6 minutes
Semi major axis: 7068 km
RCS: 0.0003 m2 (small)
Launch date: June 16, 1993
Source: Commonwealth of Independent States (former USSR) (CIS)
Launch site: PLESETSK MISSILE AND SPACE COMPLEX (PKMTR)

Note: This is SATELLITE DEBRIS
aabbcc
Your satellite tracking list
Your tracking list is empty




NASA's NSSDC Master Catalog

Two Line Element Set (TLE):
1 35670U 93036APM 19225.76456930 +.00000287 +00000-0 +63360-4 0  9990
2 35670 073.9061 256.1372 0065186 011.0664 349.1917 14.60969520537707
Source of the keplerian elements: AFSPC